"startDT [UTC]","vpos","CH4 [ppm]","stdev(CH4) [ppm]","CO2 [ppm]","stdev(CO2) [ppm]","H2O_reported [%]","stdev(H2O_reported)","CavityPressure [torr]","CavityTemp [C]","OutletValve","CH4_dry [ppm]","CO2_dry [ppm]","DasTemp [C]","EtalonTemp [C]","WarmBoxTemp [C]","MPVPosition","T_ECpre [C]","T_EC1 [C]","T_EC2 [C]","p_inlet [hPa]","p_in [hPa]","p_out [hPa]","T_inlet [C]","RH_inlet [%]","dwpt_inlet [C]","T_vent [C]","RH_vent [%]","dwpt_vent [C]","flow_vent [l min-1]","flow_inlet [l min-1]","dwpt_sample [C]","T_room [C]"
2015-05-04 00:00:00,3.0,1.87812,0.01130,399.545,2.320,0.0548,0.0734,139.732,45.001,31303.71354,1.88089,399.997,32.072,45.068,44.999,0.00,0.09,-272.73,-272.78,-2,487,-2,21.3,6.6,-16.7,20.9,6.8,-16.5,5.73,2.01,-12.7,25.6
2015-05-04 00:01:00,3.0,1.87647,0.00035,397.162,0.049,0.0130,0.0023,139.997,45.001,31077.29386,1.87668,397.229,32.163,45.068,44.999,0.00,0.09,-272.72,-272.77,-3,487,-2,21.3,6.6,-16.7,20.9,6.9,-16.4,5.73,1.99,-12.7,25.7
2015-05-04 00:02:00,3.0,1.87658,0.00027,397.222,0.106,0.0119,0.0013,139.999,45.001,31025.85773,1.87681,397.273,32.234,45.068,44.999,0.00,0.09,-272.72,-272.77,-3,488,-2,21.2,6.6,-16.7,20.9,6.8,-16.5,5.73,1.99,-12.7,25.7
2015-05-04 00:03:00,3.0,1.87641,0.00030,397.482,0.047,0.0118,0.0025,139.997,45.001,30984.46890,1.87666,397.536,32.300,45.068,44.999,0.00,0.09,-272.73,-272.78,-3,488,-2,21.2,6.6,-16.7,20.9,6.9,-16.4,5.73,1.99,-12.7,25.7
2015-05-04 00:04:00,3.0,1.87647,0.00024,397.562,0.031,0.0089,0.0020,139.999,45.001,30953.32096,1.87662,397.606,32.358,45.067,44.999,0.00,0.09,-272.72,-272.78,-2,488,-2,21.2,6.6,-16.6,20.9,6.9,-16.4,5.73,1.99,-12.7,25.7
2015-05-04 00:05:00,3.0,1.87638,0.00021,397.546,0.028,0.0079,0.0021,140.000,45.001,30929.12408,1.87652,397.582,32.407,45.068,44.999,0.00,0.09,-272.71,-272.77,-2,488,-2,21.2,6.6,-16.6,20.9,6.9,-16.4,5.73,1.99,-12.7,25.7
2015-05-04 00:06:00,3.0,1.87651,0.00043,397.576,0.040,0.0058,0.0019,139.998,45.001,30908.70928,1.87660,397.603,32.440,45.068,44.999,0.00,0.09,-272.71,-272.77,-3,488,-2,21.2,6.6,-16.6,20.9,6.9,-16.4,5.73,2.00,-12.7,25.8
2015-05-04 00:07:00,3.0,1.87650,0.00032,397.592,0.027,0.0050,0.0019,139.997,45.000,30890.38618,1.87662,397.617,32.485,45.068,44.999,0.00,0.09,-272.72,-272.78,-2,489,-2,21.2,6.6,-16.7,20.9,6.9,-16.4,5.73,1.99,-12.7,25.8
2015-05-04 00:08:00,3.0,1.87658,0.00037,397.614,0.025,0.0031,0.0015,139.999,45.001,30877.36522,1.87665,397.627,32.501,45.068,44.999,0.00,0.09,-272.72,-272.78,-2,489,-2,21.2,6.6,-16.7,20.9,6.9,-16.4,5.73,1.99,-12.7,25.8
2015-05-04 00:09:00,3.0,1.87658,0.00038,397.594,0.031,0.0036,0.0022,139.999,45.001,30865.78212,1.87663,397.613,32.505,45.068,45.000,0.00,0.09,-272.72,-272.77,-2,489,-2,21.2,6.6,-16.6,20.9,6.9,-16.4,5.73,1.99,-12.7,25.8
2015-05-04 00:10:00,3.0,1.87656,0.00030,397.589,0.030,0.0030,0.0023,140.000,45.000,30856.71494,1.87662,397.602,32.557,45.068,45.000,0.00,0.09,-272.72,-272.78,-2,490,-2,21.3,6.6,-16.6,20.9,6.9,-16.4,5.73,1.99,-12.7,25.8
2015-05-04 00:11:00,3.0,1.87622,0.00030,397.580,0.032,0.0032,0.0022,139.996,45.000,30850.61373,1.87630,397.596,32.564,45.068,45.000,0.00,0.09,-272.72,-272.77,-2,490,-2,21.3,6.6,-16.7,21.0,6.8,-16.5,5.73,1.99,-12.7,25.8
2015-05-04 00:12:00,3.0,1.87623,0.00036,397.584,0.031,0.0022,0.0016,139.998,45.000,30845.58051,1.87625,397.594,32.582,45.068,45.000,0.00,0.09,-272.72,-272.77,-2,490,-2,21.3,6.6,-16.7,21.0,6.8,-16.5,5.73,1.99,-12.7,25.8
2015-05-04 00:13:00,3.0,1.87621,0.00029,397.597,0.027,0.0020,0.0025,140.002,45.000,30839.60514,1.87626,397.607,32.623,45.068,45.000,0.00,0.09,-272.72,-272.78,-2,490,-2,21.3,6.6,-16.7,21.0,6.8,-16.5,5.73,1.99,-12.7,25.8
2015-05-04 00:14:00,3.0,1.87624,0.00036,397.593,0.030,0.0020,0.0017,139.998,45.000,30833.58761,1.87627,397.603,32.625,45.068,45.000,0.00,0.09,-272.72,-272.78,-2,491,-2,21.3,6.6,-16.7,21.0,6.8,-16.5,5.73,1.99,-12.7,25.8
2015-05-04 00:15:00,3.0,1.87658,0.00041,397.600,0.025,0.0012,0.0025,139.999,45.000,30829.44533,1.87659,397.604,32.663,45.068,45.000,0.00,0.09,-272.72,-272.77,-2,491,-2,21.3,6.5,-16.7,21.0,6.8,-16.5,5.73,1.97,-12.7,25.8
2015-05-04 00:16:00,3.0,1.87646,0.00049,397.615,0.027,0.0018,0.0014,140.001,45.000,30825.86294,1.87652,397.624,32.688,45.068,45.000,0.00,0.09,-272.72,-272.78,-2,491,-2,21.3,6.6,-16.6,21.0,6.8,-16.4,5.73,1.98,-12.7,25.8
2015-05-04 00:17:00,3.0,1.87640,0.00035,397.622,0.034,0.0015,0.0022,140.000,45.000,30823.23143,1.87639,397.629,32.689,45.068,45.000,0.00,0.09,-272.72,-272.78,-2,491,-2,21.3,6.6,-16.6,21.0,6.9,-16.4,5.73,1.98,-12.7,25.8
2015-05-04 00:18:00,3.0,1.87645,0.00040,397.622,0.029,0.0008,0.0018,140.002,45.000,30820.90571,1.87647,397.626,32.695,45.068,45.000,0.00,0.09,-272.72,-272.77,-2,491,-2,21.3,6.7,-16.5,21.0,6.9,-16.3,5.73,1.97,-12.7,25.8
2015-05-04 00:19:00,3.0,1.87674,0.00031,397.611,0.025,0.0019,0.0015,140.000,45.000,30817.74129,1.87678,397.620,32.703,45.068,45.000,0.00,0.09,-272.71,-272.78,-2,491,-2,21.3,6.7,-16.5,21.0,6.9,-16.2,5.73,1.97,-12.7,25.8
2015-05-04 00:20:00,0.0,1.91258,0.00849,403.815,2.372,0.1814,0.0751,140.253,45.000,33687.91327,1.91430,404.519,32.716,45.068,45.000,0.00,0.09,-272.72,-272.78,-2,968,-2,21.4,6.6,-16.5,21.1,6.9,-16.3,5.73,2.02,-12.6,25.8
2015-05-04 00:21:00,0.0,1.91513,0.00035,404.882,0.027,0.2196,0.0017,140.001,45.000,33920.12993,1.91928,405.957,32.701,45.068,45.000,0.00,0.09,-272.72,-272.78,-2,968,-2,21.4,6.6,-16.6,21.1,6.9,-16.3,5.73,2.02,-12.6,25.9
2015-05-04 00:22:00,0.0,1.91502,0.00030,404.879,0.042,0.2208,0.0016,140.000,45.000,33975.33559,1.91921,405.960,32.726,45.069,45.000,0.00,0.09,-272.72,-272.77,-2,967,-2,21.4,6.6,-16.5,21.1,6.9,-16.3,5.73,2.05,-12.6,25.8
2015-05-04 00:23:00,0.0,1.91493,0.00030,404.859,0.038,0.2218,0.0013,140.002,45.000,34022.29672,1.91916,405.945,32.740,45.068,45.000,0.00,0.09,-272.72,-272.78,-2,969,-2,21.4,6.6,-16.5,21.1,6.9,-16.2,5.73,2.05,-12.6,25.7
2015-05-04 00:24:00,0.0,1.91471,0.00035,404.837,0.031,0.2235,0.0017,140.003,45.000,34062.11594,1.91892,405.931,32.716,45.068,45.000,0.00,0.09,-272.72,-272.78,-2,969,-2,21.5,6.6,-16.4,21.1,6.9,-16.3,5.73,2.04,-12.6,25.6
2015-05-04 00:25:00,0.0,1.91471,0.00031,404.803,0.031,0.2210,0.0020,139.999,45.000,34094.93420,1.91891,405.887,32.688,45.068,45.000,0.00,0.09,-272.72,-272.77,-2,969,-2,21.5,6.6,-16.5,21.2,6.8,-16.3,5.73,2.03,-12.6,25.6
2015-05-04 00:26:00,0.0,1.91478,0.00032,404.801,0.039,0.2216,0.0020,139.999,45.000,34122.06091,1.91896,405.884,32.638,45.069,45.001,0.00,0.09,-272.71,-272.77,-2,971,-2,21.5,6.6,-16.5,21.2,6.8,-16.3,5.73,2.00,-12.6,25.6
2015-05-04 00:27:00,0.0,1.91509,0.00047,404.796,0.037,0.2223,0.0018,140.003,45.000,34144.94233,1.91933,405.885,32.612,45.069,45.001,0.00,0.09,-272.73,-272.78,-2,971,-2,21.6,6.6,-16.5,21.2,6.8,-16.3,5.73,2.01,-12.6,25.7
2015-05-04 00:28:00,0.0,1.91469,0.00022,404.825,0.024,0.2237,0.0017,139.998,45.000,34164.61094,1.91891,405.919,32.551,45.069,45.000,0.00,0.09,-272.72,-272.78,-3,972,-2,21.6,6.6,-16.4,21.2,6.8,-16.3,5.73,1.99,-12.6,25.7
2015-05-04 00:29:00,0.0,1.91491,0.00035,404.817,0.026,0.2238,0.0022,139.997,45.000,34180.35196,1.91917,405.913,32.478,45.068,45.000,0.00,0.09,-272.71,-272.77,-3,974,-2,21.6,6.6,-16.4,21.2,6.8,-16.3,5.73,1.98,-12.6,25.7
2015-05-04 00:30:00,0.0,1.91474,0.00032,404.823,0.031,0.2240,0.0021,140.002,44.999,34195.74006,1.91898,405.919,32.394,45.068,45.000,0.00,0.09,-272.72,-272.78,-3,974,-2,21.6,6.6,-16.5,21.3,6.8,-16.3,5.73,1.97,-12.6,25.8
2015-05-04 00:31:00,0.0,1.91520,0.00045,404.803,0.030,0.2230,0.0017,140.003,44.999,34206.94434,1.91943,405.895,32.326,45.068,45.000,0.00,0.09,-272.72,-272.78,-3,975,-2,21.6,6.6,-16.5,21.3,6.8,-16.2,5.73,1.99,-12.6,25.9
2015-05-04 00:32:00,0.0,1.91500,0.00034,404.808,0.027,0.2229,0.0018,140.000,44.999,34216.83722,1.91922,405.900,32.258,45.068,45.000,0.00,0.09,-272.72,-272.78,-4,976,-2,21.6,6.5,-16.5,21.3,6.8,-16.3,5.73,2.02,-12.6,25.9
2015-05-04 00:33:00,0.0,1.91460,0.00031,404.804,0.028,0.2227,0.0021,140.001,44.999,34225.49527,1.91885,405.895,32.185,45.068,45.000,0.00,0.09,-272.71,-272.78,-3,976,-2,21.6,6.5,-16.5,21.3,6.8,-16.3,5.73,2.04,-12.6,25.9
2015-05-04 00:34:00,0.0,1.91479,0.00043,404.802,0.030,0.2220,0.0016,139.999,44.999,34229.15578,1.91897,405.887,32.130,45.069,45.000,0.00,0.09,-272.72,-272.78,-3,977,-2,21.6,6.5,-16.6,21.3,6.8,-16.4,5.73,2.06,-12.6,26.0
2015-05-04 00:35:00,0.0,1.91466,0.00038,404.802,0.036,0.2227,0.0020,140.001,44.999,34235.50944,1.91891,405.893,32.092,45.069,45.000,0.00,0.09,-272.72,-272.77,-4,977,-2,21.6,6.5,-16.5,21.3,6.8,-16.3,5.73,2.04,-12.6,26.0
2015-05-04 00:36:00,0.0,1.91460,0.00037,404.803,0.037,0.2230,0.0014,140.002,44.999,34240.43195,1.91883,405.894,32.035,45.069,45.000,0.00,0.09,-272.72,-272.77,-4,977,-2,21.7,6.5,-16.5,21.3,6.8,-16.3,5.73,2.00,-12.5,26.0
2015-05-04 00:37:00,0.0,1.91466,0.00028,404.791,0.026,0.2226,0.0014,140.002,44.999,34244.43823,1.91885,405.881,31.987,45.069,45.000,0.00,0.09,-272.72,-272.78,-4,978,-2,21.7,6.5,-16.5,21.3,6.8,-16.3,5.73,1.97,-12.6,26.0
2015-05-04 00:38:00,0.0,1.91477,0.00050,404.757,0.034,0.2228,0.0023,140.000,44.999,34247.54692,1.91898,405.849,31.935,45.069,45.001,0.00,0.09,-272.72,-272.77,-4,978,-2,21.7,6.5,-16.5,21.3,6.8,-16.3,5.73,1.95,-12.6,25.9
2015-05-04 00:39:00,0.0,1.91468,0.00032,404.754,0.040,0.2227,0.0019,139.996,44.999,34247.74795,1.91893,405.846,31.879,45.069,45.001,0.00,0.09,-272.71,-272.77,-4,978,-2,21.7,6.5,-16.5,21.3,6.8,-16.3,5.73,1.99,-12.5,25.9
2015-05-04 00:40:00,0.0,1.91478,0.00029,404.739,0.028,0.2244,0.0017,139.999,45.000,34250.39030,1.91902,405.837,31.852,45.069,45.000,0.00,0.09,-272.72,-272.78,-4,979,-2,21.7,6.6,-16.4,21.3,6.8,-16.3,5.73,2.03,-12.6,25.9
2015-05-04 00:41:00,0.0,1.91478,0.00038,404.732,0.029,0.2239,0.0015,140.001,45.000,34254.47176,1.91905,405.829,31.816,45.069,45.001,0.00,0.09,-272.72,-272.78,-4,979,-2,21.7,6.6,-16.4,21.3,6.8,-16.3,5.73,2.07,-12.5,25.8
2015-05-04 00:42:00,0.0,1.91490,0.00033,404.726,0.034,0.2236,0.0018,139.999,45.000,34254.73333,1.91908,405.819,31.813,45.069,45.000,0.00,0.09,-272.71,-272.77,-4,978,-2,21.7,6.5,-16.5,21.3,6.8,-16.3,5.73,2.05,-12.5,25.8
2015-05-04 00:43:00,0.0,1.91474,0.00027,404.740,0.022,0.2231,0.0018,139.999,45.000,34256.15117,1.91900,405.831,31.812,45.069,45.000,0.00,0.09,-272.72,-272.77,-4,978,-2,21.7,6.5,-16.5,21.3,6.8,-16.3,5.73,2.00,-12.5,25.8
2015-05-04 00:44:00,0.0,1.91466,0.00027,404.717,0.019,0.2254,0.0021,139.997,45.000,34256.44948,1.91893,405.819,31.781,45.068,45.000,0.00,0.09,-272.73,-272.78,-4,979,-2,21.7,6.6,-16.4,21.3,6.8,-16.3,5.73,1.96,-12.5,25.8
2015-05-04 00:45:00,0.0,1.91470,0.00027,404.721,0.027,0.2266,0.0019,140.001,45.000,34257.49559,1.91900,405.830,31.757,45.069,45.000,0.00,0.09,-272.72,-272.77,-4,979,-2,21.7,6.6,-16.4,21.3,6.8,-16.2,5.73,1.96,-12.5,25.8
2015-05-04 00:46:00,0.0,1.91485,0.00029,404.690,0.027,0.2260,0.0016,140.001,45.000,34259.54665,1.91911,405.796,31.750,45.068,45.000,0.00,0.09,-272.71,-272.77,-4,979,-2,21.7,6.6,-16.4,21.3,6.8,-16.2,5.73,2.00,-12.5,25.8
2015-05-04 00:47:00,0.0,1.91462,0.00033,404.664,0.026,0.2253,0.0015,139.996,45.000,34259.94714,1.91889,405.766,31.755,45.069,45.000,0.00,0.09,-272.72,-272.77,-4,978,-2,21.7,6.6,-16.4,21.3,6.8,-16.2,5.73,2.03,-12.5,25.8
2015-05-04 00:48:00,0.0,1.91470,0.00034,404.673,0.032,0.2235,0.0020,140.000,45.000,34261.72757,1.91893,405.769,31.815,45.069,45.000,0.00,0.09,-272.72,-272.78,-4,978,-2,21.6,6.5,-16.5,21.3,6.8,-16.3,5.73,2.04,-12.5,25.8
2015-05-04 00:49:00,0.0,1.91471,0.00035,404.682,0.034,0.2222,0.0015,140.000,45.000,34261.38609,1.91893,405.769,31.888,45.069,45.000,0.00,0.09,-272.71,-272.77,-4,978,-2,21.6,6.5,-16.6,21.3,6.7,-16.4,5.73,2.03,-12.5,25.8
2015-05-04 00:50:00,0.0,1.91450,0.00016,404.689,0.027,0.2243,0.0017,139.999,45.000,34260.83049,1.91875,405.785,31.973,45.068,45.000,0.00,0.09,-272.72,-272.78,-3,977,-2,21.6,6.5,-16.5,21.3,6.8,-16.4,5.73,2.02,-12.5,25.9
2015-05-04 00:51:00,0.0,1.91444,0.00028,404.685,0.034,0.2241,0.0019,140.001,45.001,34263.70082,1.91868,405.782,32.063,45.068,45.000,0.00,0.09,-272.72,-272.78,-4,976,-2,21.6,6.5,-16.5,21.3,6.8,-16.3,5.73,2.01,-12.5,25.9
2015-05-04 00:52:00,0.0,1.91463,0.00031,404.697,0.028,0.2254,0.0018,140.000,45.001,34264.38368,1.91889,405.801,32.142,45.068,44.999,0.00,0.09,-272.72,-272.77,-4,976,-2,21.6,6.6,-16.5,21.3,6.8,-16.3,5.73,2.00,-12.5,25.9
2015-05-04 00:53:00,0.0,1.91470,0.00040,404.683,0.022,0.2273,0.0023,140.000,45.001,34264.71347,1.91903,405.793,32.209,45.068,45.000,0.00,0.09,-272.71,-272.78,-3,975,-2,21.5,6.6,-16.4,21.3,6.9,-16.2,5.73,2.01,-12.5,25.9
2015-05-04 00:54:00,0.0,1.91455,0.00041,404.697,0.035,0.2272,0.0020,139.999,45.001,34265.82164,1.91886,405.811,32.280,45.068,44.999,0.00,0.09,-272.72,-272.77,-4,975,-2,21.5,6.7,-16.3,21.3,6.9,-16.1,5.73,2.00,-12.5,25.9
2015-05-04 00:55:00,0.0,1.91460,0.00036,404.661,0.034,0.2278,0.0020,140.001,45.001,34269.51935,1.91890,405.774,32.322,45.068,44.999,0.00,0.09,-272.72,-272.78,-3,974,-2,21.5,6.6,-16.4,21.3,6.9,-16.1,5.73,2.00,-12.5,26.0
2015-05-04 00:56:00,0.0,1.91460,0.00037,404.674,0.027,0.2271,0.0015,140.003,45.001,34270.75637,1.91893,405.785,32.379,45.068,44.999,0.00,0.09,-272.71,-272.77,-3,975,-2,21.5,6.7,-16.3,21.3,6.9,-16.1,5.73,1.99,-12.5,26.0
2015-05-04 00:57:00,0.0,1.91462,0.00042,404.675,0.029,0.2269,0.0020,139.999,45.001,34270.65367,1.91891,405.784,32.444,45.068,44.999,0.00,0.09,-272.72,-272.77,-3,973,-2,21.5,6.6,-16.4,21.3,6.9,-16.2,5.73,2.01,-12.5,26.0
2015-05-04 00:58:00,0.0,1.91466,0.00044,404.680,0.027,0.2262,0.0021,140.001,45.000,34270.49063,1.91897,405.788,32.494,45.068,44.999,0.00,0.09,-272.72,-272.78,-3,974,-2,21.5,6.6,-16.4,21.2,6.9,-16.2,5.73,2.01,-12.5,25.9
2015-05-04 00:59:00,0.0,1.91484,0.00039,404.680,0.032,0.2269,0.0023,139.999,45.000,34269.01908,1.91910,405.790,32.551,45.068,44.999,0.00,0.09,-272.71,-272.77,-3,973,-2,21.5,6.6,-16.4,21.3,6.8,-16.2,5.73,2.03,-12.5,25.9
2015-05-04 01:00:00,0.0,1.91477,0.00038,404.681,0.035,0.2273,0.0022,139.999,45.000,34269.61843,1.91905,405.794,32.588,45.068,44.999,0.00,0.09,-272.71,-272.78,-3,973,-2,21.5,6.7,-16.3,21.3,6.9,-16.2,5.73,2.03,-12.5,25.9
2015-05-04 01:01:00,0.0,1.91482,0.00037,404.652,0.033,0.2260,0.0017,140.001,45.000,34270.27201,1.91913,405.760,32.625,45.068,44.999,0.00,0.09,-272.72,-272.78,-3,972,-2,21.5,6.6,-16.4,21.3,6.9,-16.2,5.73,2.04,-12.5,25.9
2015-05-04 01:02:00,0.0,1.91453,0.00041,404.633,0.032,0.2262,0.0018,140.000,45.000,34271.72788,1.91880,405.738,32.635,45.068,45.000,0.00,0.09,-272.72,-272.77,-3,972,-2,21.5,6.6,-16.4,21.3,6.9,-16.2,5.73,2.05,-12.5,25.9
2015-05-04 01:03:00,0.0,1.91464,0.00029,404.672,0.026,0.2282,0.0018,140.000,45.000,34268.33310,1.91898,405.787,32.678,45.068,45.000,0.00,0.09,-272.72,-272.77,-3,973,-2,21.5,6.7,-16.3,21.2,6.9,-16.2,5.73,2.03,-12.5,25.9
2015-05-04 01:04:00,0.0,1.91468,0.00030,404.632,0.044,0.2286,0.0017,140.001,45.000,34269.92151,1.91900,405.752,32.723,45.068,45.000,0.00,0.09,-272.72,-272.78,-3,971,-2,21.5,6.7,-16.3,21.3,6.9,-16.1,5.73,2.02,-12.4,25.9
2015-05-04 01:05:00,0.0,1.91466,0.00044,404.603,0.028,0.2293,0.0018,140.001,45.000,34268.87330,1.91899,405.725,32.753,45.068,45.000,0.00,0.09,-272.72,-272.78,-3,972,-2,21.6,6.7,-16.2,21.3,6.9,-16.1,5.73,2.00,-12.4,25.9
2015-05-04 01:06:00,0.0,1.91459,0.00040,404.606,0.033,0.2284,0.0018,139.999,45.000,34267.66124,1.91892,405.724,32.800,45.068,45.000,0.00,0.09,-272.72,-272.77,-3,972,-2,21.6,6.7,-16.3,21.3,6.9,-16.1,5.73,1.98,-12.4,25.9
2015-05-04 01:07:00,0.0,1.91452,0.00046,404.624,0.034,0.2285,0.0012,139.998,45.000,34266.06185,1.91887,405.743,32.813,45.068,45.000,0.00,0.09,-272.72,-272.77,-2,971,-2,21.6,6.7,-16.3,21.3,6.9,-16.1,5.73,1.97,-12.4,25.9
2015-05-04 01:08:00,0.0,1.91452,0.00041,404.568,0.032,0.2281,0.0018,140.002,45.000,34270.50764,1.91882,405.686,32.816,45.068,45.000,0.00,0.09,-272.72,-272.78,-3,970,-2,21.6,6.7,-16.3,21.3,6.9,-16.1,5.73,1.99,-12.4,25.9
2015-05-04 01:09:00,0.0,1.91440,0.00041,404.532,0.036,0.2280,0.0014,139.998,45.000,34268.61946,1.91874,405.650,32.815,45.068,45.000,0.00,0.09,-272.72,-272.77,-3,972,-2,21.6,6.7,-16.3,21.3,6.9,-16.1,5.73,2.01,-12.4,25.9
2015-05-04 01:10:00,0.0,1.91450,0.00047,404.544,0.027,0.2286,0.0021,139.997,45.000,34269.51163,1.91885,405.660,32.814,45.068,45.000,0.00,0.09,-272.72,-272.77,-2,971,-2,21.6,6.7,-16.2,21.3,6.9,-16.1,5.73,2.02,-12.4,25.8
2015-05-04 01:11:00,0.0,1.91439,0.00043,404.534,0.035,0.2294,0.0016,140.001,45.000,34271.35279,1.91874,405.658,32.815,45.069,45.000,0.00,0.09,-272.72,-272.78,-3,971,-2,21.7,6.7,-16.2,21.3,6.9,-16.1,5.73,2.04,-12.4,25.7
2015-05-04 01:12:00,0.0,1.91433,0.00036,404.498,0.041,0.2277,0.0010,140.001,45.000,34274.07257,1.91864,405.612,32.809,45.069,45.001,0.00,0.09,-272.72,-272.77,-3,972,-2,21.7,6.6,-16.3,21.4,6.9,-16.1,5.73,2.02,-12.4,25.7
2015-05-04 01:13:00,0.0,1.91450,0.00030,404.499,0.040,0.2282,0.0020,140.001,45.000,34275.83229,1.91881,405.614,32.767,45.069,45.001,0.00,0.09,-272.71,-272.78,-3,972,-2,21.7,6.7,-16.2,21.4,6.9,-16.1,5.73,2.02,-12.4,25.8
2015-05-04 01:14:00,0.0,1.91463,0.00040,404.478,0.034,0.2287,0.0020,140.000,45.000,34278.53889,1.91896,405.600,32.743,45.069,45.001,0.00,0.09,-272.72,-272.77,-3,973,-2,21.7,6.6,-16.3,21.4,6.9,-16.1,5.73,2.00,-12.4,25.7
2015-05-04 01:15:00,0.0,1.91452,0.00036,404.492,0.038,0.2307,0.0011,140.002,45.000,34280.06821,1.91888,405.621,32.689,45.069,45.000,0.00,0.09,-272.72,-272.78,-3,974,-2,21.7,6.7,-16.2,21.4,6.9,-16.0,5.73,1.99,-12.4,25.8
2015-05-04 01:16:00,0.0,1.91439,0.00036,404.509,0.033,0.2297,0.0015,140.001,45.000,34282.24004,1.91874,405.633,32.609,45.068,45.000,0.00,0.09,-272.71,-272.78,-3,975,-2,21.7,6.7,-16.2,21.4,6.9,-16.0,5.73,1.99,-12.4,25.9
2015-05-04 01:17:00,0.0,1.91420,0.00035,404.510,0.026,0.2300,0.0021,140.000,44.999,34283.70172,1.91857,405.634,32.532,45.068,45.000,0.00,0.09,-272.72,-272.78,-3,976,-2,21.7,6.6,-16.2,21.4,6.9,-16.0,5.73,2.00,-12.4,25.9
2015-05-04 01:18:00,0.0,1.91457,0.00037,404.525,0.037,0.2292,0.0013,139.997,44.999,34281.01088,1.91886,405.645,32.436,45.068,45.000,0.00,0.09,-272.72,-272.78,-4,976,-2,21.7,6.6,-16.3,21.4,6.9,-16.1,5.73,2.02,-12.4,26.0
2015-05-04 01:19:00,0.0,1.91479,0.00039,404.489,0.031,0.2290,0.0014,140.002,44.999,34281.01321,1.91914,405.609,32.362,45.068,45.000,0.00,0.09,-272.72,-272.77,-4,977,-2,21.8,6.6,-16.2,21.4,6.9,-16.1,5.73,2.04,-12.4,26.0
2015-05-04 01:20:00,0.0,1.91451,0.00043,404.510,0.033,0.2300,0.0020,140.002,44.999,34280.45518,1.91890,405.636,32.305,45.069,45.001,0.00,0.09,-272.72,-272.77,-4,977,-2,21.8,6.6,-16.2,21.4,6.9,-16.0,5.73,2.05,-12.4,26.1
2015-05-04 01:21:00,0.0,1.91449,0.00036,404.469,0.020,0.2310,0.0021,140.002,44.999,34281.39410,1.91882,405.600,32.248,45.069,45.001,0.00,0.09,-272.72,-272.78,-4,977,-2,21.7,6.7,-16.2,21.4,6.9,-16.0,5.73,2.04,-12.3,26.0
2015-05-04 01:22:00,0.0,1.91458,0.00039,404.497,0.026,0.2311,0.0017,140.000,44.999,34279.23712,1.91899,405.626,32.192,45.069,45.001,0.00,0.09,-272.72,-272.77,-4,978,-2,21.8,6.7,-16.1,21.4,6.9,-15.9,5.73,2.01,-12.3,26.1
2015-05-04 01:23:00,0.0,1.91446,0.00040,404.445,0.064,0.2317,0.0015,139.998,44.999,34279.74179,1.91885,405.581,32.161,45.069,45.001,0.00,0.09,-272.72,-272.76,-4,978,-2,21.8,6.7,-16.1,21.5,6.9,-15.9,5.73,1.98,-12.3,26.1
2015-05-04 01:24:00,0.0,1.91475,0.00036,404.409,0.027,0.2340,0.0013,139.998,44.999,34276.17523,1.91918,405.553,32.122,45.069,45.001,0.00,0.09,-272.72,-272.78,-4,978,-2,21.7,6.7,-16.1,21.4,7.0,-15.9,5.73,1.96,-12.4,26.0
2015-05-04 01:25:00,0.0,1.91483,0.00030,404.409,0.020,0.2324,0.0015,140.001,44.999,34277.60967,1.91922,405.546,32.075,45.069,45.001,0.00,0.09,-272.72,-272.78,-4,978,-2,21.8,6.7,-16.1,21.5,7.0,-15.9,5.73,1.97,-12.3,26.0
2015-05-04 01:26:00,0.0,1.91478,0.00030,404.420,0.033,0.2340,0.0014,140.001,45.000,34276.82306,1.91922,405.565,32.064,45.069,45.001,0.00,0.09,-272.71,-272.77,-4,978,-2,21.8,6.7,-16.0,21.5,7.0,-15.8,5.73,2.01,-12.3,26.1
2015-05-04 01:27:00,0.0,1.91483,0.00037,404.398,0.026,0.2327,0.0019,139.998,45.000,34276.44660,1.91927,405.536,32.040,45.069,45.000,0.00,0.09,-272.72,-272.77,-4,979,-2,21.8,6.7,-16.1,21.5,7.0,-15.8,5.73,2.06,-12.3,26.0
2015-05-04 01:28:00,0.0,1.91485,0.00042,404.409,0.033,0.2334,0.0019,140.000,45.000,34278.82564,1.91926,405.549,32.000,45.068,45.000,0.00,0.09,-272.72,-272.78,-4,979,-2,21.8,6.7,-16.1,21.5,7.0,-15.8,5.73,2.06,-12.3,26.0
2015-05-04 01:29:00,0.0,1.91467,0.00035,404.398,0.040,0.2328,0.0017,140.000,45.000,34278.18251,1.91909,405.538,31.985,45.068,45.000,0.00,0.09,-272.72,-272.78,-5,979,-2,21.8,6.7,-16.0,21.5,7.0,-15.8,5.73,2.01,-12.3,26.0
2015-05-04 01:30:00,0.0,1.91488,0.00033,404.395,0.036,0.2335,0.0015,140.004,45.000,34279.61519,1.91930,405.538,31.945,45.068,45.000,0.00,0.09,-272.72,-272.77,-5,980,-2,21.7,6.7,-16.0,21.4,7.0,-15.8,5.73,1.96,-12.3,26.0
2015-05-04 01:31:00,0.0,1.91501,0.00045,404.400,0.030,0.2332,0.0019,140.000,45.000,34278.24611,1.91942,405.541,31.936,45.068,45.000,0.00,0.09,-272.72,-272.78,-4,979,-2,21.8,6.7,-16.0,21.4,7.0,-15.9,5.73,1.96,-12.3,26.0
2015-05-04 01:32:00,0.0,1.91465,0.00031,404.405,0.029,0.2335,0.0015,140.002,45.000,34277.83918,1.91908,405.548,31.926,45.068,45.000,0.00,0.09,-272.72,-272.78,-4,980,-2,21.7,6.7,-16.0,21.4,7.0,-15.9,5.73,1.99,-12.3,26.0
2015-05-04 01:33:00,0.0,1.91456,0.00038,404.398,0.028,0.2343,0.0018,139.999,45.000,34277.81386,1.91900,405.543,31.920,45.068,45.000,0.00,0.09,-272.71,-272.77,-5,980,-2,21.7,6.8,-16.0,21.4,7.0,-15.8,5.73,2.04,-12.3,26.0
2015-05-04 01:34:00,0.0,1.91456,0.00030,404.381,0.034,0.2359,0.0021,139.996,45.000,34277.43837,1.91904,405.534,31.900,45.068,45.000,0.00,0.09,-272.72,-272.77,-5,979,-2,21.7,6.8,-16.0,21.4,7.0,-15.8,5.73,2.07,-12.3,26.0
2015-05-04 01:35:00,0.0,1.91440,0.00024,404.372,0.029,0.2390,0.0014,140.002,45.000,34277.59871,1.91895,405.542,31.891,45.068,45.000,0.00,0.09,-272.73,-272.78,-5,979,-2,21.7,6.9,-15.8,21.4,7.1,-15.6,5.73,2.04,-12.3,26.0
2015-05-04 01:36:00,0.0,1.91458,0.00033,404.370,0.029,0.2355,0.0021,139.996,45.000,34277.56394,1.91901,405.522,31.877,45.069,45.000,0.00,0.09,-272.72,-272.77,-4,980,-2,21.7,6.8,-15.9,21.5,7.1,-15.7,5.73,1.99,-12.3,26.0
2015-05-04 01:37:00,0.0,1.91467,0.00041,404.348,0.032,0.2365,0.0016,139.999,45.000,34277.73945,1.91920,405.503,31.874,45.069,45.000,0.00,0.09,-272.71,-272.77,-4,980,-2,21.7,6.8,-15.9,21.4,7.1,-15.7,5.73,1.95,-12.3,26.0
2015-05-04 01:38:00,0.0,1.91452,0.00028,404.388,0.039,0.2344,0.0016,139.997,45.000,34276.21595,1.91895,405.536,31.875,45.068,45.000,0.00,0.09,-272.72,-272.78,-5,980,-2,21.7,6.7,-16.0,21.4,7.0,-15.8,5.73,1.97,-12.3,26.0
2015-05-04 01:39:00,0.0,1.91451,0.00036,404.362,0.034,0.2367,0.0017,139.999,45.000,34278.66745,1.91899,405.520,31.867,45.068,45.000,0.00,0.09,-272.72,-272.77,-5,980,-2,21.7,6.8,-16.0,21.4,7.0,-15.8,5.73,2.03,-12.3,26.0
2015-05-04 01:40:00,0.0,1.91461,0.00035,404.369,0.020,0.2382,0.0019,140.001,45.000,34278.46305,1.91912,405.534,31.874,45.068,45.000,0.00,0.09,-272.72,-272.77,-4,980,-2,21.7,6.8,-15.9,21.5,7.1,-15.7,5.73,2.06,-12.3,25.9
2015-05-04 01:41:00,0.0,1.91479,0.00037,404.366,0.022,0.2367,0.0015,139.998,44.999,34274.37446,1.91928,405.524,31.874,45.068,45.000,0.00,0.09,-272.72,-272.78,-4,980,-2,21.7,6.8,-15.9,21.4,7.1,-15.7,5.73,2.05,-12.3,25.9
2015-05-04 01:42:00,0.0,1.91470,0.00043,404.362,0.029,0.2368,0.0018,140.003,45.000,34277.15625,1.91919,405.521,31.874,45.068,45.000,0.00,0.09,-272.72,-272.78,-5,980,-2,21.7,6.8,-15.9,21.4,7.0,-15.7,5.73,1.98,-12.3,25.9
2015-05-04 01:43:00,0.0,1.91467,0.00035,404.372,0.025,0.2377,0.0020,139.999,45.000,34276.26380,1.91918,405.534,31.870,45.068,45.000,0.00,0.09,-272.72,-272.77,-5,980,-2,21.7,6.9,-15.8,21.5,7.1,-15.6,5.73,1.95,-12.3,26.0
2015-05-04 01:44:00,0.0,1.91446,0.00035,404.369,0.043,0.2366,0.0018,140.000,45.000,34277.25678,1.91894,405.528,31.857,45.068,45.000,0.00,0.09,-272.72,-272.78,-5,980,-2,21.7,6.8,-15.9,21.4,7.1,-15.7,5.73,1.97,-12.3,25.9
2015-05-04 01:45:00,0.0,1.91462,0.00042,404.387,0.036,0.2371,0.0024,140.000,45.000,34276.51226,1.91912,405.544,31.871,45.068,45.000,0.00,0.09,-272.72,-272.78,-4,980,-2,21.7,6.8,-15.9,21.4,7.1,-15.7,5.73,2.04,-12.3,26.0
2015-05-04 01:46:00,0.0,1.91451,0.00030,404.389,0.032,0.2365,0.0012,140.002,45.000,34278.52030,1.91898,405.547,31.875,45.068,45.000,0.00,0.09,-272.72,-272.77,-5,980,-2,21.7,6.8,-15.9,21.4,7.1,-15.7,5.73,2.06,-12.3,26.0